Everett, WA

8:49 PM PDT on May 25, 2017 (GMT -0700)
Snohomish County

Weather History for KPAE - July, 2013

Change the Weather History Date:

Tuesday, July 30, 2013

  Actual Average Record
Temperature  
Mean Temperature 64 °F -  
Max Temperature 73 °F 74 °F 89 °F (2003)
Min Temperature 55 °F 54 °F 47 °F (1969)
Degree Days  
Heating Degree Days 2    
Growing Degree Days 14 (Base 50)    
Moisture  
Dew Point 53 °F    
Average Humidity 75    
Maximum Humidity 94    
Minimum Humidity 49    
Precipitation  
Precipitation 0.00 in - - ()
Sea Level Pressure  
Sea Level Pressure 30.11 in    
Wind  
Wind Speed 4 mph (West)    
Max Wind Speed 12 mph    
Max Gust Speed -    
Visibility 10 miles    
Events      
Averages and records for this station are not official NWS values.
T = Trace of Precipitation, MM = Missing Value Source: NWS Daily Summary

Daily Weather History Graph

Daily Weather History Graph

Search for Another Location

Airport or City:

Trip Planner

Search our weather history database for the weather conditions in past years. The results will help you decide how hot, cold, wet, or windy it might be!

Date:

Astronomy

Jul. 30, 2013 Rise Set
Actual Time 5:43 AM PDT 8:46 PM PDT
Civil Twilight 5:06 AM PDT 9:23 PM PDT
Nautical Twilight 4:19 AM PDT 10:10 PM PDT
Astronomical Twilight 3:20 AM PDT 11:08 PM PDT
Moon 12:08 AM PDT (7/30) 3:10 PM PDT (7/30)
Length of Visible Light 16h 16m
Length of Day
15h 03m
Last Quarter, 40% of the Moon is Illuminated
Jul 30
Last Quarter
Aug 6
New
Aug 14
First Quarter
Aug 20
Full
Aug 28
Last Quarter

Hourly Weather History & Observations

Time (PDT) Temp. Dew Point Humidity Pressure Visibility Wind Dir Wind Speed Gust Speed Precip Events Conditions
12:53 AM 61.0 °F 52.0 °F 72% 30.04 in 10.0 mi ENE 3.5 mph - N/A   Clear
1:53 AM 61.0 °F 52.0 °F 72% 30.04 in 10.0 mi Calm Calm - N/A   Clear
2:53 AM 61.0 °F 52.0 °F 72% 30.05 in 10.0 mi Calm Calm - N/A   Clear
3:53 AM 57.0 °F 53.1 °F 87% 30.06 in 10.0 mi SW 3.5 mph - N/A   Clear
4:53 AM 55.9 °F 52.0 °F 87% 30.08 in 10.0 mi South 3.5 mph - N/A   Clear
5:53 AM 55.0 °F 52.0 °F 89% 30.09 in 8.0 mi Calm Calm - N/A   Clear
6:12 AM 55.4 °F 51.8 °F 88% 30.10 in 8.0 mi SSW 3.5 mph - N/A   Scattered Clouds
6:53 AM 55.9 °F 53.1 °F 90% 30.11 in 9.0 mi Calm Calm - N/A   Partly Cloudy
7:34 AM 55.4 °F 53.6 °F 94% 30.12 in 9.0 mi Calm Calm - N/A   Scattered Clouds
7:53 AM 55.9 °F 53.1 °F 90% 30.13 in 9.0 mi WSW 5.8 mph - N/A   Partly Cloudy
8:14 AM 55.4 °F 53.6 °F 94% 30.14 in 6.0 mi West 4.6 mph - N/A   Mostly Cloudy
8:53 AM 57.0 °F 53.1 °F 87% 30.14 in 10.0 mi West 5.8 mph - N/A   Mostly Cloudy
9:02 AM 57.2 °F 53.6 °F 88% 30.15 in 10.0 mi West 8.1 mph - N/A   Scattered Clouds
9:53 AM 59.0 °F 53.1 °F 81% 30.15 in 10.0 mi West 5.8 mph - N/A   Partly Cloudy
10:53 AM 61.0 °F 53.1 °F 75% 30.15 in 10.0 mi West 9.2 mph - N/A   Clear
11:53 AM 61.0 °F 53.1 °F 75% 30.15 in 10.0 mi West 10.4 mph - N/A   Clear
12:53 PM 64.0 °F 53.1 °F 67% 30.14 in 10.0 mi WSW 9.2 mph - N/A   Clear
1:53 PM 68.0 °F 53.1 °F 59% 30.13 in 10.0 mi SW 11.5 mph - N/A   Clear
2:53 PM 69.1 °F 53.1 °F 57% 30.13 in 10.0 mi WSW 8.1 mph - N/A   Clear
3:53 PM 71.1 °F 53.1 °F 53% 30.11 in 10.0 mi WSW 8.1 mph - N/A   Clear
4:53 PM 72.0 °F 52.0 °F 49% 30.11 in 10.0 mi West 9.2 mph - N/A   Clear
5:53 PM 72.0 °F 52.0 °F 49% 30.10 in 10.0 mi West 8.1 mph - N/A   Clear
6:53 PM 71.1 °F 54.0 °F 55% 30.10 in 10.0 mi Variable 3.5 mph - N/A   Clear
7:53 PM 64.9 °F 54.0 °F 68% 30.11 in 10.0 mi North 3.5 mph - N/A   Clear
8:53 PM 61.0 °F 52.0 °F 72% 30.12 in 10.0 mi NNE 4.6 mph - N/A   Clear
9:53 PM 59.0 °F 53.1 °F 81% 30.13 in 10.0 mi North 6.9 mph - N/A   Mostly Cloudy
10:53 PM 57.9 °F 54.0 °F 87% 30.13 in 10.0 mi North 4.6 mph - N/A   Partly Cloudy